Location: Archemont
(49.1579°N, 1.7598°E)
Time: 08:05:39
(UTC+00:00)

S-56A Canister/Altair - Pass Details

Date: 25 April 2024
Orbit: 638 x 2488 km, 38.9° (Epoch: 18 May)

Event Time Altitude Azimuth Distance (km) Brightness Sun altitude
Rises 14:09:03 0° 198° (SSW) 2,922 11.1 44.4°
Reaches altitude 10° 14:13:58 10° 149° (SSE) 2,132 10.0 43.8°
Maximum altitude 14:14:14 10° 146° (SE) 2,140 10.0 43.8°
Drops below altitude 10° 14:14:32 10° 142° (SE) 2,157 10.0 43.7°
Sets 14:20:06 0° 97° (E) 3,422 10.5 43.0°
